DELTA 1 DEB, 10663

Orbit data source: Space-Track

DELTA 1 DEB, 10663 is space debris in SSO originally from a launch on Thu, 29 Jul 1976 UTC launched from the Air Force Western Test Range (AFWTR). Debris objects in space refer to the collection of defunct objects orbiting the Earth. Examples of debris include non-operational satellites, rocket bodies, and fragments generated from explosions, collisions, or faulty payload assembly.

Loading next visibility...
Identifier
10663, 1976-077Z
Orbit
SSO
Country
Flag of USUS
Related business
Manufacturer
Unknown
Mission
Spacecraft
Bus & Motor
Unknown
Mass
Unknown
Launch date (UTC)
1976-07-29 (50 years ago)
Launch vehicle
Unknown
Launch site
Air Force Western Test Range (AFWTR)
Object type
Payload
Rocket body
Debris
Shape & HBR
Unknown shape, 0.1 m
Radar Cross Section
Medium (>0.1 m² and <1 m²)

Expand to show TLE details & history
Last TLE update: 1 day ago

TLE from 1 day ago
0 DELTA 1 DEB
1 10663U 76077Z   26265.04642432  .00004657  00000-0  26476-2 0  9998
2 10663 100.6095 305.5666 0102930 293.1544  65.8801 14.07853183444575
Epoch: 2026-09-22T01:06Z
TLE epoch observation values (Epoch: 2026-09-22T01:06:51.061Z)
Latitude
Longitude
-72.06368°
Altitude
839.723 km
Speed
7.448 km/s
True Right ascension
20h 22m 15s
True Declination
0° 00' 00"
Sunlit
Object was in full shadow at epoch
Visualization orbit readout
Latitude
Unknown
Longitude
Unknown
Altitude
Unknown
Speed
Unknown
Apparent Right ascension
Unknown
Apparent Declination
Unknown
Sunlit
N/A
Visualization observer readout
Local Sidereal Time
17:49:50
Azimuth
Unknown
Elevation
Unknown
Doppler factor
Unknown
Orbital elements
Apogee altitude
938.545 km
Perigee altitude
789.458 km
Semi-major axis
7,242.139 km
Eccentricity
0.01029
Inclination
100.6095°
RAAN
305.5666°
Arg. of periapsis
293.1544°
True anomaly
66.96224°
Mean anomaly
65.8801°
Eccentric anomaly
66.42061°
Mean motion
3.52162 °/min
Orbital period
102.23 mins
BSTAR
0.0026476
Loading maneuver chart data...
Computing Atmospheric mass density...
Loading historical data...
Loading historical data...
Loading historical data...
Loading historical data...
Loading historical data...
Loading historical data...
Loading historical data...

Documentation

Showing up to 5 results
|